Location: Jabiru
(12.6667°S, 132.8333°E)
Time: 12:45:10
(UTC+09:30)

Envisat - Visible Passes

Search period start: 21 February 2019 00:00
Search period end: 03 March 2019 00:00
Orbit: 764 x 766 km, 98.2° (Epoch: 20 February)

Date Brightness Start Highest point End Pass type
(mag) Time Alt. Az. Time Alt. Az. Time Alt. Az.
21 Feb 5.6 20:49:09 10° SSW 20:52:51 20° WSW 20:56:31 10° WNW visible
22 Feb 3.7 20:11:18 10° S 20:16:17 56° WSW 20:21:14 10° NNW visible
23 Feb 3.1 19:34:40 10° SSE 19:39:38 52° E 19:44:33 10° N visible
24 Feb 5.1 20:37:27 10° SSW 20:41:42 27° WSW 20:45:56 10° NW visible
25 Feb 3.2 20:00:01 10° S 20:05:07 76° WSW 20:10:10 10° NNW visible
26 Feb 3.5 19:23:42 10° SSE 19:28:26 38° E 19:33:07 10° NNE visible
26 Feb 6.1 21:04:41 10° SW 21:07:03 13° WSW 21:09:25 10° WNW visible
27 Feb 4.6 20:25:54 10° S 20:30:33 36° WSW 20:35:10 10° NW visible
28 Feb 2.9 19:48:49 10° SSE 19:53:56 80° ENE 19:59:00 10° N visible
01 Mar 5.7 20:52:32 10° SSW 20:55:56 18° WSW 20:59:19 10° WNW visible
02 Mar 4.0 20:14:28 10° S 20:19:23 49° WSW 20:24:16 10° NNW visible
